Location: Delta State University
(33.7460°N, 90.7320°W)
Time: 05:20:50
(UTC-05:00)

Iridium 13 - Visible Passes

Search period start: 28 July 2014 00:00
Search period end: 07 August 2014 00:00
Orbit: 776 x 779 km, 86.4° (Epoch: 27 July)

Date Brightness Start Highest point End Pass type
(mag) Time Alt. Az. Time Alt. Az. Time Alt. Az.
28 Jul 6.1 20:30:11 10° NNE 20:35:02 39° E 20:39:51 10° SSE visible
28 Jul 8.0 22:11:49 10° NW 22:15:23 19° W 22:18:56 10° SW visible
29 Jul 7.0 21:37:22 10° NNW 21:42:06 36° W 21:46:48 10° SSW visible
30 Jul 5.8 21:03:30 10° N 21:08:42 72° W 21:13:51 10° S visible
31 Jul 5.6 20:30:02 10° N 20:35:11 58° E 20:40:17 10° SSE visible
31 Jul 8.4 22:13:12 10° NW 22:15:16 12° W 22:17:21 10° WSW visible
01 Aug 7.7 21:37:55 10° NNW 21:42:03 24° W 21:46:11 10° SW visible
02 Aug 6.6 21:03:45 10° NNW 21:08:43 47° W 21:13:41 10° SSW visible
03 Aug 5.6 20:30:03 10° N 20:35:17 88° E 20:40:29 10° S visible
04 Aug 8.3 21:38:49 10° NW 21:41:59 16° W 21:45:08 10° WSW visible
05 Aug 7.4 21:04:09 10° NNW 21:08:43 32° W 21:13:15 10° SW visible
06 Aug 6.1 20:30:12 10° N 20:35:20 62° W 20:40:27 10° SSW visible
